Regional Weather Roundup
Issued by NWS Goodland, KS

Home | Current Version | Previous Version | Graphics & Text | Print | Product List | Glossary On
Versions: 1 2 3 4 5 6 7 8 9 10 11 12 13 14 15 16 17 18 19 20 21 22 23 24 25 26 27 28 29 30 31 32 33 34 35 36 37 38 39 40 41 42 43 44 45 46 47 48 49 50
000
ASUS43 KGLD 252008
RWRGLD

GOODLAND FORECAST AREA HOURLY WEATHER ROUNDUP
NATIONAL WEATHER SERVICE GOODLAND KS
200 PM MDT SAT APR 25 2015

...OFFICIAL OBSERVATIONS...

CITY           SKY/WX    TMP DP  RH WIND       PRES   REMARKS
GOODLAND KS    SUNNY     69  43  38 N8        29.71S
HILL CITY KS   MOSUNNY   69  51  52 NE9       29.68R
IMPERIAL NEB   MOSUNNY   69  42  37 NE12      29.68F
MCCOOK NEB     MOSUNNY   71  49  45 N6        29.68R
AKRON CO       MOSUNNY   66  31  27 W3        29.72S
BURLINGTON CO  SUNNY     70  39  32 NE7G17    29.73S
LIMON CO       PTSUNNY   65  28  24 E13       29.73F
$$

...UNOFFICIAL OBSERVATIONS...

CITY           SKY/WX    TMP DP  RH WIND       PRES   REMARKS
COLBY KS       MOSUNNY   70  48  46 N7        29.71R
GOVE KS          N/A     71  32  23 MISG        N/A
LENORA KS        N/A     69  32  25 MISG        N/A
NORTON KS      CLOUDY    68  48  49 NE12      29.68R
SHARON SPRINGS   N/A     71  48  43 N7G14       N/A
TRIBUNE KS     SUNNY     73  50  43 MISG      29.72
KIT CARSON CO    N/A     71  40  32 MISG        N/A
YUMA CO          N/A     70  36  28 CALM        N/A
$$



USA.gov is the U.S. government's official web portal to all federal, state and local government web resources and services.